Location: Anan
(43.3550°N, 0.8171°E)
Time: 15:32:42
(UTC+00:00)

CZ-2C R/B - Pass Details

Date: 14 May 2026
Orbit: 702 x 901 km, 98.2° (Epoch: 10 June)

Event Time Altitude Azimuth Distance (km) Brightness Sun altitude
Rises 23:27:44 0° 16° (NNE) 3,505 7.4 -27.6°
Reaches altitude 10° 23:30:11 10° 21° (NNE) 2,574 6.5 -27.6°
Enters shadow 23:35:50 58° 98° (E) 1,047 3.5 -27.7°
